• Processing (Info)

  • MPEC 2011-Q57 : 2010 VZ98

    The following Minor Planet Electronic Circular may be linked-to from your own Web pages, but must not otherwise be redistributed electronically.

    A form allowing access to any MPEC is at the bottom of this page.


    Read MPEC 2011-Q56 Read MPEC 2011-R01


    M.P.E.C. 2011-Q57                                Issued 2011 Aug. 31, 17:19 UT
    
         The Minor Planet Electronic Circulars contain information on unusual
             minor planets and routine data on comets.  They are published
       on behalf of Commission 20 of the International Astronomical Union by the
              Minor Planet Center, Smithsonian Astrophysical Observatory,
                              Cambridge, MA 02138, U.S.A.
    
                 Prepared using the Tamkin Foundation Computer Network
    
                                  MPC@CFA.HARVARD.EDU
                URL http://www.minorplanetcenter.net/    ISSN 1523-6714
    
                                       2010 VZ98
    
    Additional Observations:
         K10V98Z  C2011 08 30.04366 02 21 23.57 +09 17 11.2          20.6 RoEQ057461
         K10V98Z  C2011 08 30.09016 02 21 23.50 +09 17 10.0          20.7 RoEQ057461
         K10V98Z  C2011 08 31.08509 02 21 21.78 +09 16 55.0          20.2 RoEQ057461
    
    Observer details:
    461 University of Szeged, Piszkesteto Stn. (Konkoly).  Observer K. Sarneczky.
        0.60-m Schmidt + CCD.
    
    Orbital elements:
    2010 VZ98
    Epoch 2011 Aug. 27.0 TT = JDT 2455800.5                 MPC
    M 356.61270              (2000.0)            P               Q
    n   0.00069096     Peri.  306.09033     +0.44389071     -0.89335834
    a 126.7170625      Node   117.41518     +0.84534342     +0.39164579
    e   0.7187668      Incl.    4.50981     +0.29724662     +0.22028267
    P  1430            H    4.9           G   0.15           U   6
    Residuals in seconds of arc
    101111 809  0.1-  0.1-    101112 809  0.1+  0.0     110830 461  0.1+  0.3-
    101111 809  0.1+  0.1-    110102 688  0.3+  0.1+    110831 461  0.2+  0.1+
    101112 809  0.0   0.0     110102 688  0.3-  0.0
    101112 809  0.1+  0.2+    110830 461  0.1-  0.2+
    
    Ephemeris:
    2010 VZ98                a,e,i = 126.72, 0.72, 5                 q = 35.637
    Date    TT    R. A. (2000) Decl.     Delta      r     Elong.  Phase     V
    2011 08 01    02 21 31.7 +09 21 20  37.5413 37.5915    92.1     1.5    20.9
    ...
    2011 08 16    02 21 37.9 +09 20 01  37.2820 37.5801   106.4     1.5    20.8
    ...
    2011 08 24    02 21 32.1 +09 18 35  37.1502 37.5740   114.1     1.4    20.8
    ...
    2011 08 30    02 21 23.6 +09 17 12  37.0561 37.5695   119.9     1.3    20.8
    2011 08 31    02 21 21.9 +09 16 56  37.0409 37.5687   120.9     1.3    20.8
    2011 09 01    02 21 20.1 +09 16 41  37.0258 37.5680   121.8     1.3    20.8
    ...
    2011 09 07    02 21 07.3 +09 14 58  36.9390 37.5634   127.7     1.2    20.8
    ...
    2011 09 15    02 20 45.5 +09 12 22  36.8334 37.5573   135.5     1.1    20.8
    ...
    2011 09 30    02 19 51.9 +09 06 40  36.6728 37.5460   150.3     0.8    20.7
    
    A. U. Tomatic                (C) Copyright 2011 MPC           M.P.E.C. 2011-Q57
    

    Read MPEC 2011-Q56 Read MPEC 2011-R01


    MPEC number:

    Enter an MPEC number in one of the following forms:

    • 1997-B01 (the full form)
    • J97B01 (the packed version of the full form)
    • B01 (the abbreviated form)